マクノート-ヒューズ彗星

130P/McNaught-Hughes (2024)

English version
Home page
Updated on July 28, 2026

---------------------------------------------------------------------

・ プロフィール

・ 写真集

・ 軌道要素

Epoch 2024 Mar. 31.0 TT = JDT 2460400.5
T 2024 Apr. 14.88316 TT                                 Rudenko
q   1.8229852            (2000.0)            P               Q
n   0.15852005     Peri.  246.12734     +0.71822654     +0.68867656
a   3.3812705      Node    70.17867     -0.59378766     +0.68108520
e   0.4608579      Incl.    6.06360     -0.36272145     +0.24869166
P   6.22
>From 1143 observations 2004 Apr. 20-2024 Mar. 18, mean residual 0".7.
     Nongravitational parameters A1 = +0.03, A2 = +0.0008.

・ 星図

・ 光度変化

        m1 = 12.5 + 5 logΔ + 10.0 log r          [    ,-360]  (              〜2023年 4月20日)
        m1 =  7.5 + 5 logΔ + 20.0 log r          [-360,   0]  (2023年 4月20日〜2024年 4月14日)
        m1 =  8.7 + 5 logΔ + 15.0 log r(t - 30)  [   0,    ]  (2024年 4月14日〜              )

---------------------------------------------------------------------

軌道要素はM.P.E.C. 2024-F34に掲載されたものです。
星図はステラナビゲータ Ver.10 (アストロアーツ) で作成したものです。
光度グラフはComet for Windowsで作成したものです。

---------------------------------------------------------------------

Copyright(C) Seiichi Yoshida (comet@aerith.net). All rights reserved.